Hourly Data Report for October 04, 2015

All times are specified in Local Standard Time (LST). Add 1 hour to adjust for Daylight Saving Time where and when it is observed.

WINNIPEG A CS
MANITOBA

49°55'00.000" N
97°14'58.000" W
238.70 m
502S001
71849
XWG

Download Data

Hourly Data (October 2015)
Hourly Data Report for October 4, 2015
Temp Definition
°C
Dew Point Temp Definition
°C
Rel Hum Definition
%
Wind Dir Definition
10's deg

Wind Spd Definition
km/h
Visibility Definition
km
Stn Press Definition
kPa
Hmdx Definition


Wind Chill Definition


Weather Definition


TIME
00:00 9.3 3.4 67 14 17   99.63     LegendNANA
01:00 8.6 3.5 71 15 15   99.65     LegendNANA
02:00 8.8 3.5 69 15 16   99.62     LegendNANA
03:00 8.7 3.3 69 16 18   99.59     LegendNANA
04:00 8.1 3.2 71 15 14   99.58     LegendNANA
05:00 7.9 3.1 72 15 18   99.56     LegendNANA
06:00 7.3 3.4 76 15 17   99.55     LegendNANA
07:00 7.6 3.7 76 14 21   99.53     LegendNANA
08:00 7.7 3.8 77 15 21   99.51     LegendNANA
09:00 7.8 4.1 77 15 19   99.47     LegendNANA
10:00 9.2 4.6 73 16 21   99.48     LegendNANA
11:00 10.4 5.2 70 17 20   99.45     LegendNANA
12:00 11.2 6.0 71 17 17   99.38     LegendNANA
13:00 12.0 6.6 69 17 19   99.33     LegendNANA
14:00 13.0 6.6 65 15 18   99.26     LegendNANA
15:00 13.2 5.9 61 17 15   99.21     LegendNANA
16:00 12.9 6.5 65 14 10   99.14     LegendNANA
17:00 12.6 6.8 68 15 12   99.11     LegendNANA
18:00 12.3 6.8 69 15 14   99.07     LegendNANA
19:00 12.5 6.0 64 14 16   99.02     LegendNANA
20:00 12.7 5.4 61 15 19   99.00     LegendNANA
21:00 12.4 5.5 63 16 19   98.99     LegendNANA
22:00 12.7 5.3 60 17 24   98.95     LegendNANA
23:00 12.5 5.7 63 18 24   98.92     LegendNANA

Notes on Data Quality.

Legend

  • E = Estimated
  • M = Missing
  • NA = Not Available
  • ‡ = Partner data that is not subject to review by the National Climate Archives
Date modified: